MST,Max TemperatureF,Mean TemperatureF,Min TemperatureF,Max Dew PointF,MeanDew PointF,Min DewpointF,Max Humidity, Mean Humidity, Min Humidity, Max Sea Level PressureIn, Mean Sea Level PressureIn, Min Sea Level PressureIn, Max VisibilityMiles, Mean VisibilityMiles, Min VisibilityMiles, Max Wind SpeedMPH, Mean Wind SpeedMPH, Max Gust SpeedMPH,PrecipitationIn, CloudCover, Events, WindDirDegrees
2014-1-1,38,30,22,24,20,14,92,68,44,30.42,30.18,29.88,10,9,2,24,11,28,T,7,Snow,353
2014-1-2,46,33,20,24,17,14,92,60,28,30.40,30.29,30.09,10,10,10,18,11,21,0.00,0,,237
2014-1-3,66,43,20,23,18,15,74,45,15,30.05,29.74,29.57,10,10,10,21,12,27,0.00,0,,228
2014-1-4,42,22,1,27,18,-2,96,71,45,30.27,29.97,29.62,10,5,0,24,15,31,0.08,6,Fog-Snow,3
2014-1-5,15,3,-9,8,2,-14,87,76,64,30.67,30.40,30.25,10,7,1,22,13,28,0.01,6,Snow,354
2014-1-6,25,8,-9,11,-1,-16,78,57,36,30.60,30.47,30.21,10,10,10,24,14,30,0.00,0,,259
2014-1-7,48,33,18,29,20,7,85,60,34,30.17,30.08,30.01,10,10,10,21,8,24,0.00,2,,254
2014-1-8,33,25,17,21,18,14,92,78,63,30.26,30.18,30.02,10,10,10,17,9,21,0.00,2,,103
2014-1-9,37,26,15,26,20,13,100,82,64,30.15,29.92,29.65,10,7,0,21,13,26,0.00,1,Fog,187
2014-1-10,42,32,21,30,25,18,100,76,51,29.88,29.70,29.60,10,6,0,38,16,46,0.03,6,Fog-Snow,312
2014-1-11,51,39,26,23,21,20,69,50,30,30.05,29.89,29.61,10,10,10,22,15,29,0.00,1,,246
2014-1-12,56,43,29,27,20,11,64,43,22,29.91,29.67,29.53,10,10,10,40,18,48,0.00,1,,296
2014-1-13,53,36,19,22,16,13,68,45,21,30.00,29.95,29.88,10,10,10,41,18,51,0.00,4,,287
2014-1-14,46,36,25,31,22,12,78,56,33,30.41,30.25,29.95,10,10,6,39,17,52,T,6,Snow,336
2014-1-15,59,42,24,21,19,17,74,48,22,30.33,30.10,29.95,10,10,10,28,14,35,0.00,2,,273
2014-1-16,46,35,23,20,12,6,59,41,22,30.29,30.18,30.01,10,9,4,48,24,64,0.00,2,,328
2014-1-17,53,34,15,19,14,9,74,49,24,30.28,30.15,30.02,10,10,10,23,12,27,0.00,1,,284
2014-1-18,52,39,26,18,12,3,53,34,15,30.22,30.10,29.99,10,9,5,44,20,53,0.00,2,,302
2014-1-19,67,48,28,17,13,10,49,31,12,30.08,29.98,29.88,10,10,10,28,13,34,0.00,0,,274
2014-1-20,50,32,13,19,13,6,67,45,23,30.46,30.24,29.91,10,10,5,36,17,44,0.00,1,,328
2014-1-21,61,36,10,17,8,-1,83,46,9,30.44,30.23,30.06,10,10,10,30,13,36,0.00,0,,283
2014-1-22,43,26,8,23,13,5,80,61,41,30.53,30.28,30.12,10,8,2,24,12,30,0.01,4,Snow,25
2014-1-23,15,10,4,6,2,-3,88,76,63,30.86,30.64,30.44,10,6,1,22,11,27,0.06,4,Snow,10
2014-1-24,54,33,12,26,18,5,70,48,26,30.47,30.22,30.09,10,10,10,31,19,38,0.00,1,,284
2014-1-25,58,45,32,27,24,22,61,46,30,30.15,30.02,29.84,10,10,10,29,15,35,0.00,0,,286
2014-1-26,59,38,16,25,19,-2,75,50,24,30.26,29.94,29.75,10,10,5,38,17,49,0.00,3,,335
2014-1-27,18,12,5,13,6,-6,92,66,40,30.41,30.32,30.19,10,6,1,15,8,19,0.04,7,Snow,187
2014-1-28,27,13,-2,12,6,-4,92,69,46,30.48,30.35,30.20,10,10,9,18,11,23,T,1,,272
2014-1-29,50,33,16,21,12,7,67,43,19,30.17,29.87,29.44,10,10,10,25,16,35,0.00,0,,220
2014-1-30,51,36,21,31,24,20,100,69,37,29.90,29.76,29.40,10,6,1,38,16,49,0.16,7,Snow,82
2014-1-31,21,17,13,19,16,11,92,88,84,30.06,29.90,29.78,10,7,1,21,7,24,0.17,8,Snow,99